Regional Weather Roundup
Issued by NWS

Current Version | Previous Version | Text Only | Print | Product List | Glossary On
Versions: 1 2 3 4 5 6 7 8 9 10 11 12 13 14 15 16 17 18 19 20 21 22 23 24 25 26 27 28 29 30 31 32 33 34 35 36 37 38 39 40 41 42 43 44 45 46 47 48 49 50
000
ASCA42 TJSJ 241111
RWRPR
PUERTO RICO/U.S. VIRGIN ISLANDS HOURLY WEATHER ROUNDUP
NATIONAL WEATHER SERVICE SAN JUAN PR
700 AM AST FRI OCT 24 2014

PRZ001-004-241200-
PUERTO RICO

CITY           SKY/WX    TMP DP  RH WIND       PRES   REMARKS
SAN JUAN LMM   PTCLDY    81  75  83 CALM      29.94R
AGUADILLA      CLEAR     75  72  88 CALM      29.94
CEIBA          CLEAR     79  75  89 CALM      29.96R
$$

PRZ006-007-241200-
U.S. VIRGIN ISLANDS

CITY           SKY/WX    TMP DP  RH WIND       PRES   REMARKS
$$

HOURLY WEATHER ROUNDUP FOR THE NEWS MEDIA

CITY           SKY/WX    TMP DP  RH WIND       PRES   REMARKS
MIAMI          LGT RAIN  74  72  93 NE10      29.84R FOG
ORLANDO        CLEAR     64  56  75 N7        29.97R
NEW YORK       MOCLDY    52  42  69 NW12      29.80R
NEWARK         MOCLDY    50  43  77 NW7       29.81R
CHICAGO        CLOUDY    53  45  74 SW3       30.05S
HARTFORD       CLOUDY    50  48  93 NW8       29.66R
BOSTON         CLOUDY    48  47  96 NW12      29.68R
DALLAS         PTCLDY    63  56  78 SE7       30.13R
PHILADELPHIA   MOCLDY    57  44  62 NW15      29.86R



USA.gov is the U.S. government's official web portal to all federal, state and local government web resources and services.